Russellville, AR

3:46 AM CDT on September 22, 2019 (GMT -0500)
Russellville Regional

Weather History for KRUE - August, 2019

Change the Weather History Date:

Tuesday, August 20, 2019

  Actual Average (WUND) Record (WUND)
Temperature  
Mean Temperature 84 °F -  
Max Temperature 97 °F - - (-1)
Min Temperature 73 °F - - (-1)
Cooling Degree Days 20    
Growing Degree Days 34 (Base 50)    
Moisture  
Dew Point 72 °F    
Average Humidity 72    
Maximum Humidity 94    
Minimum Humidity 47    
Precipitation  
Precipitation 0.00 in - - ()
Sea Level Pressure  
Sea Level Pressure 30.00 in    
Wind  
Wind Speed 3 mph (ESE)    
Max Wind Speed 26 mph    
Max Gust Speed 38 mph    
Visibility 10 miles    
Events Thunderstorm    
Averages and records for this station are not official NWS values.
T = Trace of Precipitation, MM = Missing Value Source: NWS Daily Summary

Daily Weather History Graph

Daily Weather History Graph

Search for Another Location

Airport or City:

Astronomy

Aug. 20, 2019 Rise Set
Actual Time 6:35 AM CDT 7:55 PM CDT
Civil Twilight 6:09 AM CDT 8:21 PM CDT
Nautical Twilight 5:37 AM CDT 8:53 PM CDT
Astronomical Twilight 5:04 AM CDT 9:26 PM CDT
Moon 10:54 PM CDT (8/20) 11:04 AM CDT (8/20)
Length of Visible Light 14h 12m
Length of Day
13h 19m
Waning Gibbous, 77% of the Moon is Illuminated
Aug 20
Waning Gibbous
Aug 23
Last Quarter
Aug 30
New
Sep 5
First Quarter
Sep 13
Full

Hourly Weather History & Observations

Time (CDT) Temp. Heat Index Dew Point Humidity Pressure Visibility Wind Dir Wind Speed Gust Speed Precip Events Conditions
12:53 AM 79.0 °F - 73.9 °F 84% 29.99 in 10.0 mi Calm Calm - N/A   Clear
1:53 AM 77.0 °F - 73.9 °F 90% 29.98 in 10.0 mi Calm Calm - N/A   Clear
2:53 AM 77.0 °F - 73.9 °F 90% 29.97 in 10.0 mi Calm Calm - N/A   Clear
3:53 AM 75.9 °F - 73.0 °F 91% 29.96 in 9.0 mi Calm Calm - N/A   Clear
4:53 AM 75.0 °F - 73.0 °F 94% 29.97 in 7.0 mi Calm Calm - N/A   Clear
5:53 AM 75.0 °F - 73.0 °F 94% 29.98 in 6.0 mi Calm Calm - N/A   Clear
6:53 AM 73.9 °F - 72.0 °F 93% 29.99 in 4.0 mi Calm Calm - N/A   Clear
7:53 AM 80.1 °F 85.1 °F 75.0 °F 85% 30.01 in 10.0 mi Calm Calm - N/A   Clear
8:53 AM 84.9 °F 93.3 °F 75.0 °F 72% 30.01 in 10.0 mi Calm Calm - N/A   Clear
9:53 AM 88.0 °F 98.5 °F 75.9 °F 67% 30.02 in 10.0 mi Calm Calm - N/A   Clear
10:53 AM 93.0 °F 105.3 °F 75.9 °F 57% 30.03 in 10.0 mi Variable 3.5 mph - N/A   Clear
11:53 AM 93.9 °F 105.4 °F 75.0 °F 54% 30.02 in 10.0 mi South 5.8 mph - N/A   Clear
12:53 PM 96.1 °F 105.6 °F 73.0 °F 47% 30.00 in 10.0 mi Calm Calm - N/A   Clear
1:53 PM 96.1 °F 108.6 °F 75.0 °F 51% 29.99 in 10.0 mi Variable 5.8 mph - N/A   Clear
2:53 PM 95.0 °F 105.2 °F 73.9 °F 50% 29.97 in 10.0 mi East 4.6 mph - N/A   Clear
3:53 PM 91.9 °F 103.2 °F 75.0 °F 58% 29.96 in 10.0 mi South 4.6 mph - N/A   Clear
4:53 PM 88.0 °F 93.8 °F 71.1 °F 57% 29.93 in 10.0 mi South 3.5 mph - N/A   Clear
5:53 PM 89.1 °F 98.0 °F 73.9 °F 61% 29.94 in 10.0 mi Variable 3.5 mph - N/A   Clear
6:53 PM 90.0 °F 101.3 °F 75.9 °F 63% 29.96 in 10.0 mi East 5.8 mph - N/A   Clear
7:53 PM 88.0 °F 96.5 °F 73.9 °F 63% 29.98 in 10.0 mi East 4.6 mph - N/A   Clear
8:53 PM 87.1 °F 94.5 °F 73.0 °F 63% 30.03 in 10.0 mi East 6.9 mph - N/A   Clear
9:30 PM 82.0 °F 84.1 °F 66.0 °F 58% 30.09 in 10.0 mi ENE 26.5 mph 38.0 mph N/A Thunderstorm Scattered Clouds
9:50 PM 75.2 °F - 68.0 °F 78% 30.07 in 10.0 mi East 15.0 mph 26.5 mph N/A Thunderstorm Thunderstorm
9:53 PM 75.0 °F - 68.0 °F 79% 30.05 in 10.0 mi ENE 15.0 mph 26.5 mph N/A Thunderstorm Thunderstorm
10:10 PM 73.9 °F - 66.0 °F 76% 30.07 in 10.0 mi SE 6.9 mph 21.9 mph N/A   Clear
10:53 PM 73.9 °F - 66.9 °F 79% 30.05 in 10.0 mi North - - N/A   Clear
11:53 PM 73.0 °F - 68.0 °F 84% 30.02 in 10.0 mi North - - N/A   Clear